Terminal Aerodrome Forecast
Issued by NWS St Louis, MO

Home | Current Version | Previous Version | Text Only | Print | Product List | Glossary On
Versions: 1 2 3 4 5 6 7 8 9 10 11 12 13 14 15 16 17 18 19 20 21 22 23 24 25 26 27 28 29 30 31 32 33 34 35 36 37 38 39 40 41 42 43 44 45 46 47 48 49 50
000
FTUS43 KLSX 160857 AAB
TAFSTL
TAF AMD
KSTL 160857Z 1609/1712 22007KT P6SM VCTS SCT035CB OVC120
     FM161000 24007KT P6SM SCT040 BKN120
     FM162100 27006KT P6SM VCTS SCT050CB BKN120
     FM170300 VRB04KT P6SM SCT040 BKN120
     FM170900 VRB04KT P6SM BKN030=

USA.gov is the U.S. government's official web portal to all federal, state and local government web resources and services.